Location: ????????
(55.0559°N, 39.1270°E)
Time: 01:38:40
(UTC+00:00)

COSMO-SKYMED 1 - Pass Details

Date: 15 November 2025
Orbit: 579 x 581 km, 97.9° (Epoch: 12 December)

Event Time Altitude Azimuth Distance (km) Brightness Sun altitude
Rises 03:54:36 0° 208° (SSW) 2,798 5.8 -8.7°
Reaches altitude 10° 03:57:23 10° 228° (SW) 1,903 4.8 -8.3°
Maximum altitude 04:00:10 17° 271° (W) 1,488 4.0 -7.9°
Drops below altitude 10° 04:02:57 10° 314° (NW) 1,913 4.5 -7.6°
Enters shadow 04:04:31 - 327° (NNW) 2,386 5.1 -7.4°
